Cody, WY

12:01 PM MDT on June 25, 2017 (GMT -0600)
Yellowstone Regional

Weather History for KCOD - February, 2013

Change the Weather History Date:

Tuesday, February 19, 2013

  Actual Average Record
Temperature  
Mean Temperature 28 °F -  
Max Temperature 37 °F 45 °F 64 °F (1930)
Min Temperature 19 °F 22 °F -17 °F (1918)
Degree Days  
Heating Degree Days 37    
Moisture  
Dew Point 14 °F    
Average Humidity 57    
Maximum Humidity 80    
Minimum Humidity 33    
Precipitation  
Precipitation 0.00 in - - ()
Sea Level Pressure  
Sea Level Pressure 29.67 in    
Wind  
Wind Speed 3 mph (ESE)    
Max Wind Speed 10 mph    
Max Gust Speed 16 mph    
Visibility 10 miles    
Events      
Averages and records for this station are not official NWS values.
T = Trace of Precipitation, MM = Missing Value Source: NWS Daily Summary

Daily Weather History Graph

Daily Weather History Graph

Search for Another Location

Airport or City:

Trip Planner

Search our weather history database for the weather conditions in past years. The results will help you decide how hot, cold, wet, or windy it might be!

Date:

Astronomy

Feb. 19, 2013 Rise Set
Actual Time 7:09 AM MST 5:50 PM MST
Civil Twilight 6:39 AM MST 6:20 PM MST
Nautical Twilight 6:05 AM MST 6:54 PM MST
Astronomical Twilight 5:32 AM MST 7:28 PM MST
Moon 12:17 PM MST (2/19) 2:51 AM MST (2/19)
Length of Visible Light 11h 40m
Length of Day
10h 41m
Waxing Gibbous, 68% of the Moon is Illuminated
Feb 19
Waxing Gibbous
Feb 25
Full
Mar 4
Last Quarter
Mar 11
New
Mar 19
First Quarter

Hourly Weather History & Observations

Time (MST) Temp. Windchill Dew Point Humidity Pressure Visibility Wind Dir Wind Speed Gust Speed Precip Events Conditions
11:15 AM 28.4 °F - 12.2 °F 51% 29.74 in 10.0 mi Calm Calm - N/A   Clear
11:35 AM 30.2 °F - 10.4 °F 44% 29.73 in 10.0 mi Calm Calm - N/A   Clear
11:55 AM 32.0 °F 27.5 °F 10.4 °F 41% 29.71 in 10.0 mi SE 4.6 mph - N/A   Clear
12:15 PM 33.8 °F - 10.4 °F 38% 29.70 in 10.0 mi Calm Calm - N/A   Clear
12:35 PM 35.6 °F 32.8 °F 12.2 °F 38% 29.69 in 10.0 mi East 3.5 mph - N/A   Clear
12:55 PM 35.6 °F 32.8 °F 8.6 °F 33% 29.67 in 10.0 mi East 3.5 mph - N/A   Clear
1:15 PM 35.6 °F 31.7 °F 12.2 °F 38% 29.67 in 10.0 mi SE 4.6 mph - N/A   Clear
1:35 PM 35.6 °F 32.8 °F 12.2 °F 38% 29.66 in 10.0 mi SE 3.5 mph - N/A   Clear
1:55 PM 37.4 °F 31.4 °F 12.2 °F 36% 29.66 in 10.0 mi East 8.1 mph - N/A   Clear
2:15 PM 37.4 °F 30.8 °F 12.2 °F 36% 29.65 in 10.0 mi ESE 9.2 mph 16.1 mph N/A   Clear
2:35 PM 37.4 °F 30.3 °F 12.2 °F 36% 29.65 in 10.0 mi ESE 10.4 mph - N/A   Clear
2:55 PM 37.4 °F 32.1 °F 12.2 °F 36% 29.65 in 10.0 mi East 6.9 mph - N/A   Clear
3:55 PM 35.6 °F - 15.8 °F 44% 29.64 in 10.0 mi Calm Calm - N/A   Scattered Clouds
4:15 PM 35.6 °F 29.9 °F 14.0 °F 41% 29.64 in 10.0 mi NE 6.9 mph - N/A   Scattered Clouds
5:35 PM 33.8 °F 29.6 °F 15.8 °F 48% 29.65 in 10.0 mi ENE 4.6 mph - N/A   Mostly Cloudy
6:15 PM 28.4 °F 23.3 °F 17.6 °F 64% 29.66 in 10.0 mi North 4.6 mph - N/A   Mostly Cloudy
6:35 PM 26.6 °F 21.2 °F 17.6 °F 69% 29.66 in 10.0 mi NNE 4.6 mph - N/A   Scattered Clouds
6:55 PM 26.6 °F 20.0 °F 15.8 °F 64% 29.67 in 10.0 mi NE 5.8 mph - N/A   Clear
7:15 PM 26.6 °F 19.1 °F 17.6 °F 69% 29.67 in 10.0 mi ENE 6.9 mph - N/A   Mostly Cloudy
7:35 PM 24.8 °F 19.1 °F 15.8 °F 69% 29.67 in 10.0 mi ENE 4.6 mph - N/A   Mostly Cloudy
7:55 PM 24.8 °F 19.1 °F 15.8 °F 69% 29.67 in 10.0 mi East 4.6 mph - N/A   Mostly Cloudy
8:15 PM 26.6 °F - 15.8 °F 64% 29.67 in 10.0 mi Calm Calm - N/A   Scattered Clouds
8:35 PM 23.0 °F 17.0 °F 14.0 °F 68% 29.67 in 10.0 mi South 4.6 mph - N/A   Clear
9:15 PM 23.0 °F 15.8 °F 15.8 °F 74% 29.67 in 10.0 mi South 5.8 mph - N/A   Clear
9:35 PM 23.0 °F 17.0 °F 15.8 °F 74% 29.67 in 10.0 mi South 4.6 mph - N/A   Clear
9:55 PM 23.0 °F - 15.8 °F 74% 29.67 in 10.0 mi Calm Calm - N/A   Clear
10:15 PM 23.0 °F - 17.6 °F 80% 29.67 in 10.0 mi Calm Calm - N/A   Clear
10:35 PM 23.0 °F - 15.8 °F 74% 29.67 in 10.0 mi Calm Calm - N/A   Clear
10:55 PM 21.2 °F 14.9 °F 15.8 °F 80% 29.66 in 10.0 mi South 4.6 mph - N/A   Clear
11:15 PM 21.2 °F 14.9 °F 15.8 °F 80% 29.66 in 10.0 mi SSW 4.6 mph - N/A   Clear
11:35 PM 19.4 °F - 14.0 °F 80% 29.66 in 10.0 mi Calm Calm - N/A   Clear
11:55 PM 23.0 °F 17.0 °F 15.8 °F 74% 29.66 in 10.0 mi SSW 4.6 mph - N/A   Clear